Starlink 11747

operational
NORAD ID: 64322 Int'l Des: 2025-124 Owner: SPXS Country: US Constellation: starlink
LEOCIRCULAR

Über Starlink 11747

Beschreibung wird geladen...

Live-Position

3D-Globus wird geladen...

Nächste Überflüge

Höhenverlauf

Altitude vs Time

uPlot chart will show altitude changes over time

Zweizeiliger Elementsatz

1 64322U 25124F 25261.25240632 .00332324 00000-0 24388-2 0 9995
2 64322 42.9981 348.6877 0003162 296.6618 63.3926 15.71345549 15712
Epoch: 18. Sept. 2025 • Age: 20 hours

Aktueller Status

Höhe 357.5 km
Geschwindigkeit 7.70 km/s
Subsatellitenpunkt 37.95°N, 73.39°E
Startdatum 10. Juni 2025
Alter 0.2 years
Typ internet

Technische Details

Klassifizierung Payload
Masse 960.00 kg
Trockenmasse 910.00 kg
Gesamtmasse 960.00 kg
Länge 0.30 m
Durchmesser 4.10 m
Spannweite 29.00 m
Form Box + pan
Hersteller SPXS
Bus-Typ Starlink V2MD
Phasenstatus In Orbit
Besitzer/Staat SPXS/US

Große Konstellationen

Loading constellations...